FW3353 Weather Reports


time (UTC)temp
C
wind
direction
speed
KPH
gust
KPH
rain 1hr
cm
rain 24hr
cm
rain mn
cm
humidity
%
barometer
mb
20260508132503 11 307 3.2 8.0 0.00 0.00 0.00 86 1016.9
20260508132003 11 310 3.2 9.7 0.00 0.00 0.00 84 1016.9
20260508131503 11 319 4.8 12.9 0.00 0.00 0.00 85 1016.8
20260508131024 11 322 3.2 12.9 0.00 0.00 0.00 85 1016.8
20260508130524 12 34 1.6 6.4 0.00 0.00 0.00 88 1016.8
20260508130004 12 75 4.8 8.0 0.00 0.00 0.00 88 1016.7
20260508125503 11 86 4.8 9.7 0.00 0.00 0.00 88 1016.7
20260508125003 11 131 3.2 9.7 0.00 0.00 0.00 89 1016.7
20260508124503 11 111 4.8 9.7 0.00 0.00 0.00 89 1016.6
20260508124003 11 114 4.8 9.7 0.00 0.00 0.00 88 1016.5
20260508123503 11 146 4.8 9.7 0.00 0.00 0.00 88 1016.5
20260508123003 11 142 4.8 9.7 0.00 0.00 0.00 88 1016.6
20260508122504 11 141 4.8 11.3 0.00 0.00 0.00 87 1016.6
20260508122004 11 136 4.8 11.3 0.00 0.00 0.00 87 1016.6
20260508121503 11 96 4.8 11.3 0.00 0.00 0.00 86 1016.6
20260508121003 11 84 6.4 11.3 0.00 0.00 0.00 86 1016.4
20260508120503 11 94 6.4 11.3 0.00 0.00 0.00 86 1016.4
20260508120004 11 87 4.8 9.7 0.00 0.00 0.00 85 1016.4
20260508115503 11 85 6.4 12.9 0.00 0.00 0.00 84 1016.4
20260508115003 11 81 8.0 12.9 0.00 0.00 0.00 84 1016.4
20260508114503 12 79 8.0 12.9 0.00 0.00 0.00 83 1016.3
20260508114003 12 85 6.4 12.9 0.00 0.00 0.00 82 1016.2
20260508113503 12 66 4.8 12.9 0.00 0.00 0.00 79 1016.3
20260508113004 12 327 3.2 6.4 0.00 0.00 0.00 76 1016.2
20260508112524 12 342 3.2 12.9 0.00 0.00 0.00 76 1016.1
20260508112003 12 334 4.8 12.9 0.00 0.00 0.00 76 1016.0
20260508111503 12 322 6.4 11.3 0.00 0.00 0.00 77 1016.0
20260508111003 12 315 4.8 9.7 0.00 0.00 0.00 76 1016.0
20260508110503 12 308 6.4 16.1 0.00 0.00 0.00 77 1016.0
20260508110004 12 308 8.0 16.1 0.00 0.00 0.00 77 1015.9
20260508105503 12 313 6.4 12.9 0.00 0.00 0.00 77 1016.0
20260508105003 13 314 6.4 12.9 0.00 0.00 0.00 78 1016.0
20260508104503 12 322 6.4 12.9 0.00 0.00 0.00 77 1016.0
20260508104003 12 325 4.8 11.3 0.00 0.00 0.00 77 1015.9
20260508103503 12 315 4.8 8.0 0.00 0.00 0.00 77 1015.9
20260508103024 12 308 4.8 8.0 0.00 0.00 0.00 77 1016.0
20260508102503 12 307 4.8 11.3 0.00 0.00 0.00 77 1016.0
20260508102003 12 305 4.8 11.3 0.00 0.00 0.00 77 1016.0
20260508101503 12 288 3.2 9.7 0.00 0.00 0.00 77 1016.0
20260508101003 12 264 1.6 6.4 0.00 0.00 0.00 77 1015.9
20260508100503 12 282 1.6 8.0 0.00 0.00 0.00 78 1015.9
20260508100003 12 293 1.6 8.0 0.00 0.00 0.00 78 1015.9
20260508095503 12 299 1.6 6.4 0.00 0.00 0.00 79 1015.9
20260508095003 12 295 1.6 6.4 0.00 0.00 0.00 80 1015.9
20260508094524 12 297 1.6 6.4 0.00 0.00 0.00 80 1015.9
20260508094003 12 302 3.2 6.4 0.00 0.00 0.00 79 1015.8
20260508093503 12 305 1.6 6.4 0.00 0.00 0.00 80 1015.9
20260508093003 12 299 1.6 6.4 0.00 0.00 0.00 80 1015.9
20260508092503 12 294 1.6 6.4 0.00 0.00 0.00 79 1015.8
20260508092003 12 305 1.6 6.4 0.00 0.00 0.00 80 1015.8
20260508091503 12 311 3.2 9.7 0.00 0.00 0.00 80 1015.7
20260508091003 12 312 3.2 9.7 0.00 0.00 0.00 80 1015.7
20260508090503 12 311 3.2 8.0 0.00 0.00 0.00 80 1015.7
20260508090003 12 300 3.2 8.0 0.00 0.00 0.00 80 1015.7
20260508085503 12 296 3.2 8.0 0.00 0.00 0.00 80 1015.7
20260508085003 12 296 3.2 6.4 0.00 0.00 0.00 80 1015.6
20260508084524 12 298 1.6 6.4 0.00 0.00 0.00 81 1015.6
20260508084003 12 291 1.6 3.2 0.00 0.00 0.00 82 1015.6
20260508083503 11 281 1.6 4.8 0.00 0.00 0.00 83 1015.6
20260508083003 11 282 1.6 4.8 0.00 0.00 0.00 83 1015.7
20260508082503 11 290 1.6 6.4 0.00 0.00 0.00 85 1015.6
20260508082003 11 297 3.2 6.4 0.00 0.00 0.00 84 1015.5
20260508081504 11 300 3.2 6.4 0.00 0.00 0.00 85 1015.4
20260508081003 11 302 3.2 6.4 0.00 0.00 0.00 86 1015.4
20260508080503 10 306 3.2 6.4 0.00 0.00 0.00 86 1015.4
20260508080024 10 305 3.2 8.0 0.00 0.00 0.00 86 1015.3
20260508075524 10 311 3.2 9.7 0.00 0.00 0.00 86 1015.3
20260508075003 10 312 4.8 9.7 0.00 0.00 0.00 87 1015.3
20260508074503 10 310 4.8 12.9 0.00 0.00 0.00 87 1015.2
20260508074024 10 306 3.2 12.9 0.00 0.00 0.00 88 1015.2
20260508073503 10 299 3.2 6.4 0.00 0.00 0.00 89 1015.1
20260508073003 10 296 3.2 6.4 0.00 0.00 0.00 89 1015.1
20260508072503 10 296 1.6 8.0 0.00 0.00 0.00 90 1015.0
20260508072003 10 299 3.2 8.0 0.00 0.00 0.00 90 1015.0
20260508071503 9 301 3.2 9.7 0.00 0.00 0.00 90 1014.9
20260508071024 9 300 3.2 9.7 0.00 0.00 0.00 90 1014.8
20260508070503 9 295 3.2 8.0 0.00 0.00 0.00 91 1014.8
20260508070024 9 300 4.8 8.0 0.00 0.00 0.00 91 1014.7
20260508065524 9 306 4.8 8.0 0.00 0.00 0.00 91 1014.6
20260508065003 9 310 3.2 6.4 0.00 0.00 0.00 91 1014.5
20260508064503 9 321 3.2 8.0 0.00 0.00 0.00 90 1014.5
20260508064003 9 323 4.8 8.0 0.00 0.00 0.00 90 1014.4
20260508063503 9 317 4.8 8.0 0.00 0.00 0.00 91 1014.4
20260508063003 9 310 3.2 8.0 0.00 0.00 0.00 91 1014.4
20260508062524 9 305 3.2 8.0 0.00 0.00 0.00 91 1014.4
20260508062024 9 303 3.2 8.0 0.00 0.00 0.00 92 1014.4
20260508061524 9 295 3.2 6.4 0.00 0.00 0.00 92 1014.4
20260508061003 9 286 1.6 6.4 0.00 0.00 0.00 92 1014.4
20260508060503 9 273 1.6 3.2 0.00 0.00 0.00 92 1014.4
20260508060003 9 271 0.0 1.6 0.00 0.00 0.00 92 1014.3
20260508055503 9 271 0.0 3.2 0.00 0.00 0.00 92 1014.3
20260508055003 9 274 1.6 6.4 0.00 0.00 0.00 92 1014.3
20260508054503 9 277 1.6 6.4 0.00 0.00 0.00 92 1014.2
20260508054003 9 281 1.6 4.8 0.00 0.00 0.00 92 1014.2
20260508053503 8 278 1.6 4.8 0.00 0.00 0.00 92 1014.2
20260508053024 8 276 1.6 4.8 0.00 0.00 0.00 92 1014.1
20260508052503 8 275 0.0 4.8 0.00 0.00 0.00 92 1014.1
20260508052024 8 275 0.0 4.8 0.00 0.00 0.00 92 1014.0
20260508051524 8 275 0.0 1.6 0.00 0.00 0.00 92 1013.9
20260508051003 8 275 0.0 3.2 0.00 0.00 0.00 92 1013.8
20260508050503 8 275 0.0 3.2 0.00 0.00 0.00 92 1013.7
20260508050003 8 275 0.0 1.6 0.00 0.00 0.00 92 1013.7
20260508045503 8 275 0.0 3.2 0.00 0.00 0.00 92 1013.7
20260508045003 8 275 0.0 3.2 0.00 0.00 0.00 91 1013.8
20260508044503 8 275 1.6 4.8 0.00 0.00 0.00 91 1013.8
20260508044003 8 275 1.6 4.8 0.00 0.00 0.00 91 1013.8
20260508043503 8 275 0.0 3.2 0.00 0.00 0.00 91 1013.7
20260508043003 8 274 0.0 3.2 0.00 0.00 0.00 91 1013.6
20260508042503 9 274 0.0 3.2 0.00 0.00 0.00 92 1013.6
20260508042003 8 0 0.0 0.0 0.00 0.00 0.00 92 1013.5
20260508041504 8 0 0.0 0.0 0.00 0.00 0.00 92 1013.5
20260508041003 8 274 0.0 1.6 0.00 0.00 0.00 92 1013.4
20260508040503 8 274 0.0 1.6 0.00 0.00 0.00 92 1013.4
20260508040024 9 0 0.0 0.0 0.00 0.00 0.00 92 1013.4
20260508035503 9 0 0.0 0.0 0.00 0.00 0.00 92 1013.4
20260508035003 9 0 0.0 0.0 0.00 0.00 0.00 91 1013.4
20260508034503 9 0 0.0 0.0 0.00 0.00 0.00 91 1013.3
20260508034003 9 0 0.0 0.0 0.00 0.00 0.00 91 1013.2
20260508033503 9 0 0.0 0.0 0.00 0.00 0.00 91 1013.2
20260508033003 9 0 0.0 0.0 0.00 0.00 0.00 91 1013.2
20260508032503 9 274 0.0 1.6 0.00 0.00 0.00 91 1013.2
20260508032003 9 274 0.0 3.2 0.00 0.00 0.00 91 1013.2
20260508031503 9 274 0.0 3.2 0.00 0.00 0.00 91 1013.3
20260508031003 9 274 0.0 1.6 0.00 0.00 0.00 91 1013.3
20260508030503 9 274 0.0 1.6 0.00 0.00 0.00 91 1013.3
20260508030003 9 274 1.6 3.2 0.00 0.00 0.00 91 1013.3
20260508025524 9 265 1.6 6.4 0.00 0.00 0.00 91 1013.3
20260508025003 9 262 3.2 6.4 0.00 0.00 0.00 91 1013.3
20260508024503 9 266 3.2 6.4 0.00 0.00 0.00 91 1013.3
20260508024024 9 273 1.6 4.8 0.00 0.00 0.00 90 1013.2
20260508023503 9 300 0.0 1.6 0.00 0.00 0.00 90 1013.1
20260508023003 9 300 0.0 1.6 0.00 0.00 0.00 90 1013.0
20260508022503 9 0 0.0 0.0 0.00 0.00 0.00 90 1013.0
20260508022003 9 0 0.0 0.0 0.00 0.00 0.00 90 1013.0
20260508021503 9 0 0.0 0.0 0.00 0.00 0.00 90 1013.0
20260508021024 9 0 0.0 0.0 0.00 0.00 0.00 90 1013.0
20260508020503 9 0 0.0 0.0 0.00 0.00 0.00 89 1013.0
20260508020003 10 0 0.0 0.0 0.00 0.00 0.00 89 1012.9
20260508015503 10 0 0.0 0.0 0.00 0.00 0.00 89 1012.9
20260508015003 10 308 0.0 3.2 0.00 0.00 0.00 89 1012.9
20260508014504 10 308 0.0 3.2 0.00 0.00 0.00 89 1012.9
20260508014003 10 307 1.6 6.4 0.00 0.00 0.00 88 1012.8
20260508013524 10 301 3.2 6.4 0.00 0.00 0.00 88 1012.8
20260508013003 10 293 3.2 6.4 0.00 0.00 0.00 88 1012.9
20260508012524 10 288 1.6 6.4 0.00 0.00 0.00 87 1012.9
20260508012003 10 281 3.2 6.4 0.00 0.00 0.00 87 1012.9
20260508011524 10 280 3.2 6.4 0.00 0.00 0.00 87 1012.9
20260508011003 10 278 3.2 6.4 0.00 0.00 0.00 87 1012.9
20260508010503 10 275 1.6 4.8 0.00 0.00 0.00 87 1012.9
20260508010024 10 275 1.6 4.8 0.00 0.00 0.00 86 1012.9
20260508005503 10 271 1.6 6.4 0.00 0.00 0.00 86 1012.9
20260508005024 10 264 1.6 8.0 0.00 0.00 0.00 86 1013.0
20260508004503 10 264 3.2 8.0 0.00 0.00 0.00 86 1012.9
20260508004003 10 269 1.6 6.4 0.00 0.00 0.00 85 1012.9
20260508003503 10 272 1.6 4.8 0.00 0.00 0.00 85 1012.9
20260508003004 10 267 3.2 11.3 0.00 0.00 0.00 85 1012.9
20260508002503 10 267 3.2 11.3 0.00 0.00 0.00 85 1012.9
20260508002003 10 263 3.2 8.0 0.00 0.00 0.00 84 1012.9
20260508001503 10 259 3.2 8.0 0.00 0.00 0.00 84 1012.9
20260508001003 10 261 3.2 9.7 0.00 0.00 0.00 84 1012.8
20260508000524 10 260 4.8 9.7 0.00 0.00 0.00 84 1012.8
20260508000024 10 259 3.2 8.0 0.00 0.00 0.00 84 1012.8
20260507235524 10 252 3.2 8.0 0.00 0.00 0.00 84 1012.8
20260507235003 10 251 3.2 8.0 0.00 0.00 0.00 83 1012.7
20260507234503 10 249 3.2 8.0 0.00 0.00 0.00 83 1012.7
20260507234003 10 247 3.2 8.0 0.00 0.00 0.00 83 1012.7
20260507233503 10 252 3.2 8.0 0.00 0.00 0.00 84 1012.7
20260507233003 10 261 1.6 4.8 0.00 0.00 0.00 84 1012.6
20260507232524 10 266 1.6 4.8 0.00 0.00 0.00 84 1012.5
20260507232003 10 270 1.6 3.2 0.00 0.00 0.00 84 1012.4
20260507231524 10 271 1.6 3.2 0.00 0.00 0.00 84 1012.3
20260507231003 10 271 1.6 3.2 0.00 0.00 0.00 84 1012.3
20260507230524 10 271 0.0 3.2 0.00 0.00 0.00 84 1012.3
20260507230024 10 271 0.0 1.6 0.00 0.00 0.00 84 1012.2
20260507225503 10 0 0.0 0.0 0.00 0.00 0.00 84 1012.2
20260507225003 10 0 0.0 0.0 0.00 0.00 0.00 84 1012.3
20260507224504 11 0 0.0 0.0 0.00 0.00 0.00 84 1012.2
20260507224003 11 0 0.0 0.0 0.00 0.00 0.00 84 1012.1
20260507223503 11 0 0.0 0.0 0.00 0.00 0.00 84 1012.1
20260507223024 11 0 0.0 0.0 0.00 0.00 0.00 84 1012.1
20260507222503 11 0 0.0 0.0 0.00 0.00 0.00 84 1012.0
20260507222003 11 0 0.0 0.0 0.00 0.00 0.00 84 1012.0
20260507221503 11 0 0.0 0.0 0.00 0.00 0.00 83 1012.1
20260507221003 11 0 0.0 0.0 0.00 0.00 0.00 83 1012.1
20260507220503 11 0 0.0 0.0 0.00 0.00 0.00 83 1012.1
20260507220024 11 0 0.0 0.0 0.00 0.00 0.00 82 1012.1
20260507215503 11 0 0.0 0.0 0.00 0.00 0.00 83 1012.1
20260507215003 11 0 0.0 0.0 0.00 0.00 0.00 82 1012.0
20260507214503 11 0 0.0 0.0 0.00 0.00 0.00 82 1012.0
20260507214003 11 0 0.0 0.0 0.00 0.00 0.00 82 1012.0
20260507213524 11 0 0.0 0.0 0.00 0.00 0.00 82 1011.9
20260507213024 11 0 0.0 0.0 0.00 0.00 0.00 82 1011.9
20260507212503 11 0 0.0 0.0 0.00 0.00 0.00 82 1011.8
20260507212024 11 273 0.0 1.6 0.00 0.00 0.00 81 1011.8
20260507211503 11 273 0.0 1.6 0.00 0.00 0.00 81 1011.8
20260507211003 11 273 0.0 1.6 0.00 0.00 0.00 81 1011.8
20260507210503 12 273 0.0 1.6 0.00 0.00 0.00 81 1011.8
20260507210004 12 273 0.0 1.6 0.00 0.00 0.00 80 1011.8
20260507205503 12 272 1.6 4.8 0.00 0.00 0.00 80 1011.7
20260507205003 12 273 1.6 4.8 0.00 0.00 0.00 80 1011.6
20260507204503 12 280 1.6 6.4 0.00 0.00 0.00 79 1011.6
20260507204003 12 285 1.6 6.4 0.00 0.00 0.00 79 1011.5
20260507203503 12 275 3.2 8.0 0.00 0.00 0.00 79 1011.5
20260507203003 12 264 3.2 8.0 0.00 0.00 0.00 78 1011.4
20260507202503 12 254 3.2 8.0 0.00 0.00 0.00 77 1011.4
20260507202024 12 241 4.8 12.9 0.00 0.00 0.00 76 1011.3
20260507201503 12 231 6.4 19.3 0.00 0.00 0.00 76 1011.2
20260507201003 12 232 4.8 19.3 0.00 0.00 0.00 76 1011.1
20260507200503 12 241 1.6 8.0 0.00 0.00 0.00 76 1011.0
20260507200003 12 242 1.6 3.2 0.00 0.00 0.00 76 1010.9
20260507195503 12 242 1.6 3.2 0.00 0.00 0.00 76 1010.8
20260507195003 12 241 1.6 3.2 0.00 0.00 0.00 76 1010.9
20260507194503 12 241 1.6 6.4 0.00 0.00 0.00 77 1010.9
20260507194003 12 243 3.2 8.0 0.00 0.00 0.00 77 1010.8
20260507193503 12 245 1.6 8.0 0.00 0.00 0.00 78 1010.8
20260507193003 13 229 3.2 8.0 0.00 0.00 0.00 79 1010.7
20260507192503 13 214 3.2 8.0 0.00 0.00 0.00 80 1010.7
20260507192003 13 199 3.2 8.0 0.00 0.00 0.00 80 1010.7
20260507191524 13 203 3.2 8.0 0.00 0.00 0.00 80 1010.7
20260507191024 13 214 3.2 8.0 0.00 0.00 0.00 79 1010.7
20260507190503 13 239 1.6 4.8 0.00 0.00 0.00 79 1010.7
20260507190004 13 233 1.6 4.8 0.00 0.00 0.00 78 1010.6
20260507185503 13 210 3.2 8.0 0.00 0.00 0.00 78 1010.6
20260507185003 13 212 3.2 8.0 0.00 0.00 0.00 78 1010.5
20260507184504 13 208 3.2 6.4 0.00 0.00 0.00 78 1010.5
20260507184003 13 224 3.2 6.4 0.00 0.00 0.00 79 1010.5
20260507183503 13 204 3.2 6.4 0.00 0.00 0.00 79 1010.4
20260507183003 13 208 3.2 6.4 0.00 0.00 0.00 78 1010.4
20260507182503 13 236 3.2 6.4 0.00 0.00 0.00 79 1010.4
20260507182003 13 226 3.2 6.4 0.00 0.00 0.00 79 1010.4
20260507181503 13 207 3.2 6.4 0.00 0.00 0.00 81 1010.4
20260507181003 13 162 3.2 6.4 0.00 0.00 0.00 80 1010.5
20260507180503 13 84 3.2 6.4 0.00 0.00 0.00 79 1010.5
20260507180003 12 84 3.2 6.4 0.00 0.00 0.00 80 1010.5
20260507175503 12 73 4.8 6.4 0.00 0.00 0.00 80 1010.4
20260507175003 12 97 3.2 8.0 0.00 0.00 0.00 80 1010.5
20260507174503 12 146 3.2 8.0 0.00 0.00 0.00 79 1010.5
20260507174024 12 295 1.6 6.4 0.00 0.00 0.00 79 1010.5
20260507173524 12 296 1.6 4.8 0.00 0.00 0.00 79 1010.7
20260507173024 12 289 0.0 4.8 0.00 0.00 0.00 79 1010.6
20260507172503 12 0 0.0 0.0 0.00 0.00 0.00 79 1010.6
20260507172003 12 285 0.0 3.2 0.00 0.00 0.00 81 1010.7
20260507171503 12 281 0.0 3.2 0.00 0.00 0.00 82 1010.7
20260507171003 12 277 0.0 1.6 0.00 0.00 0.00 81 1010.7
20260507170503 12 276 0.0 1.6 0.00 0.00 0.00 81 1010.6
20260507170003 12 271 1.6 9.7 0.00 0.00 0.00 81 1010.7
20260507165503 12 258 3.2 9.7 0.00 0.00 0.00 82 1010.8
20260507165024 12 224 4.8 12.9 0.00 0.00 0.00 84 1010.7
20260507164503 12 214 6.4 12.9 0.00 0.00 0.00 84 1010.8
20260507164003 13 202 4.8 11.3 0.00 0.00 0.00 82 1010.7
20260507163503 13 191 6.4 12.9 0.00 0.00 0.00 82 1010.6
20260507163003 13 181 6.4 14.5 0.00 0.00 0.00 81 1010.5
20260507162503 13 162 6.4 14.5 0.00 0.00 0.00 80 1010.6
20260507162003 13 154 8.0 16.1 0.00 0.00 0.00 79 1010.5
20260507161524 13 158 8.0 17.7 0.00 0.00 0.00 78 1010.5
20260507161003 13 180 8.0 17.7 0.00 0.00 0.00 77 1010.6
20260507160503 14 201 8.0 16.1 0.00 0.00 0.00 77 1010.5
20260507160003 14 209 6.4 14.5 0.00 0.00 0.00 77 1010.6
20260507155503 13 207 6.4 12.9 0.00 0.00 0.00 77 1010.6
20260507155003 13 199 6.4 12.9 0.00 0.00 0.00 77 1010.6
20260507154503 13 193 4.8 12.9 0.00 0.00 0.00 78 1010.7
20260507154024 13 185 6.4 12.9 0.00 0.00 0.00 79 1010.7
20260507153504 12 176 6.4 17.7 0.00 0.00 0.00 80 1010.7
20260507153003 12 187 6.4 17.7 0.00 0.00 0.00 80 1010.7
20260507152503 12 205 6.4 14.5 0.00 0.00 0.00 80 1010.7
20260507152003 12 195 4.8 14.5 0.00 0.00 0.00 81 1010.8
20260507151503 12 166 4.8 12.9 0.00 0.00 0.00 82 1010.8
20260507151024 12 167 6.4 14.5 0.00 0.00 0.00 82 1010.9
20260507150524 12 178 6.4 14.5 0.00 0.00 0.00 82 1010.9
20260507150024 12 172 8.0 17.7 0.00 0.00 0.00 82 1011.0
20260507145503 12 164 8.0 19.3 0.00 0.00 0.00 82 1010.9
20260507145003 12 169 8.0 19.3 0.00 0.00 0.00 82 1011.0
20260507144503 12 168 8.0 19.3 0.00 0.00 0.00 82 1011.0
20260507144003 12 160 8.0 19.3 0.00 0.00 0.00 82 1011.1
20260507143503 12 150 8.0 17.7 0.00 0.00 0.00 81 1011.2
20260507143025 12 159 8.0 17.7 0.00 0.00 0.00 81 1011.1
20260507142524 12 167 8.0 17.7 0.00 0.00 0.00 81 1011.2
20260507142003 12 147 8.0 19.3 0.00 0.00 0.00 81 1011.3
20260507141524 12 141 8.0 19.3 0.00 0.00 0.00 81 1011.3
20260507141024 12 137 8.0 19.3 0.00 0.00 0.00 81 1011.4
20260507140503 12 155 8.0 19.3 0.00 0.00 0.00 81 1011.4
20260507140003 12 162 8.0 19.3 0.00 0.00 0.00 81 1011.4
20260507135524 12 151 9.7 22.5 0.00 0.00 0.00 81 1011.5
20260507135003 12 152 9.7 22.5 0.00 0.00 0.00 80 1011.4
20260507134503 12 150 9.7 24.1 0.00 0.00 0.00 79 1011.5
20260507134004 12 148 9.7 24.1 0.00 0.00 0.00 79 1011.4
20260507133503 12 144 9.7 24.1 0.00 0.00 0.00 78 1011.4
20260507133003 12 141 9.7 24.1 0.00 0.00 0.00 76 1011.3